Kendrick, ID (83537)

10:57 PM PST on November 25, 2014 (GMT -0800)
Linden, Idaho (Cedar Ridge) | Change Station
CLOSE
Current Station
Personal Weather Station
Location: Kendrick, ID
Elevation: 2707 ft
Nearby Weather Stations
Active Advisory: Winter Weather Advisory Active Notice: Local Storm Report

Elev 2707 ft 46.69 °N, 116.50 °W | Updated 5 seconds ago

Overcast
Overcast
35.4 °F
Feels Like 35 °F
N
0.0
Wind Variable Wind from SE
Gusts 0.0 mph

Today
High -- | Low -- °F
--% Chance of Precip.
Yesterday
High -- | Low -- °F
Precip. -- in
7:02 AM 4:03 PM
Waxing Crescent, 17% visible
Pressure 30.21 in
Visibility 3.0 miles
Clouds Mostly Cloudy 500 ft
Overcast 800 ft
Windchill 35 °F
Dew Point 35 °F
Humidity 97%
Rainfall 1.19 in
Snow Depth Not available.
UV 0 out of 12
Pollen .10 out of 12
Air Quality Not available.
Flu Activity Not available.
METAR KPUW 260653Z AUTO 00000KT 3SM -RA BR BKN005 OVC008 04/03 A3016 RMK AO2 SLP228 P0003 T00390033

More Conditions Fewer Conditions

Pressure 30.21 in
Visibility 3.0 miles
Clouds Mostly Cloudy 500 ft
Overcast 800 ft
Windchill 35 °F
Dew Point 35 °F
Humidity 97%
Rainfall 1.19 in
Snow Depth Not available.
UV 0 out of 12
Pollen .10 out of 12
Air Quality Not available.
Flu Activity Not available.
METAR KPUW 260653Z AUTO 00000KT 3SM -RA BR BKN005 OVC008 04/03 A3016 RMK AO2 SLP228 P0003 T00390033

More Conditions Fewer Conditions

10-Day Weather Forecast

Almanac

Astronomy

Nov. 25, 2014 Rise Set
Actual Time
Civil Twilight
Nautical Twilight
Astronomical Twilight
Moon
Length of Visible Light
Length of Day
Tomorrow will be .
, % of the Moon is Illuminated

Today's Extremes

State Highs State Lows

Community

WunderPhotos

Upload Photos

1,773,691 photos uploaded!

WunderBlogs® & News

Nearby

Air Quality

  Air Quality AQ Index Pollutant
Not available.

Snow Depth

Station Depth Elevation

Earthquake Activity

City Distance Mag. Time & Date
Minimum magnitude displayed is 2.5.

Coastal Water Temperatures

Place Temperature

Nearby Weather Stations